User: anonymous   Login
Location: Blienschwiller
(48.3416°N, 7.4182°E)
Time: 06:39:57
(UTC+00:00)
Language:

Cosmos 2251 Rocket - Orbit

View from above orbital plane
View from above orbital plane
View from above satellite
View from above satellite

Ground track
Ground track

The orbit data is extracted from the following two-line orbital elements,

1 22676U 93036B   20151.75672416 -.00000020 +00000-0 +22806-5 0  9997
2 22676 074.0435 009.1579 0018220 134.4045 225.8602 14.34007817409668
Epoch (UTC): 30 May 2020 18:09:40
Eccentricity: 0.0018220
inclination: 74.0435°
perigee height: 765 km
apogee height: 791 km
right ascension of ascending node: 9.1579°
argument of perigee: 134.4045°
revolutions per day: 14.34007817
mean anomaly at epoch: 225.8602°
orbit number at epoch: 40966

The dashed part of the orbit path shows where the satellite is in the earth's shadow,  

DLR